Regional Weather Roundup
Issued by NWS

Home | Current Version | Previous Version | Text Only | Print | Product List | Glossary On
Versions: 1 2 3 4 5 6 7 8 9 10 11 12 13 14 15 16 17 18 19 20 21 22 23 24 25 26 27 28 29 30 31 32 33 34 35 36 37 38 39 40 41 42 43 44 45 46 47 48 49 50
000
ASUS43 KLSX 300857
RWRMO

WEATHER SUMMARY FOR MISSOURI
NATIONAL WEATHER SERVICE SPRINGFIELD MO
400 AM CDT SAT APR 30 2016

NOTE: "FAIR" INDICATES FEW OR NO CLOUDS BELOW 12,000 FEET WITH NO
       SIGNIFICANT WEATHER AND/OR OBSTRUCTIONS TO VISIBILITY.
       CURRENT SKY AND/OR WEATHER CONDITIONS ARE NOT AVAILABLE FOR
       CHILLICOTHE AND FARMINGTON.

MOZ001>031-035>038-043-044-053-054-301000-
...NORTHERN AND WESTERN MISSOURI...

CITY           SKY/WX    TMP DP  RH WIND       PRES   REMARKS
KANSAS CTY INT LGT RAIN  53  52  96 E13       29.67F VSB<1/4
LEE`S SUMMIT   CLOUDY    57  56  96 E7        29.67F
ST JOSEPH      LGT RAIN  51  49  92 E15G23    29.69F FOG
CHILLICOTHE      N/A     52  50  93 NE8       29.76F

$$
MOZ066>068-077>081-088>096-101>105-301000-
...SOUTHWEST MISSOURI...

CITY           SKY/WX    TMP DP  RH WIND       PRES   REMARKS
SPRINGFIELD    CLOUDY    62  59  90 SE10      29.64R
JOPLIN         CLOUDY    61  59  93 SW6       29.65R

$$
MOZ032>034-039>042-045>050-055>058-069>072-301000-
...CENTRAL MISSOURI...

CITY           SKY/WX    TMP DP  RH WIND       PRES   REMARKS
COLUMBIA       LGT RAIN  57  57 100 SE14      29.77F
JEFFERSON CITY RAIN      58  56  93 E16       29.77F
ROLLA          RAIN      57  56  96 E14       29.76F FOG
SEDALIA        CLOUDY    59  57  93 SE15      29.72S
WARRENSBURG    CLOUDY    59  55  88 E12       29.68F

$$
MOZ051-052-059>065-301000-
...EAST CENTRAL MISSOURI...

CITY           SKY/WX    TMP DP  RH WIND       PRES   REMARKS
ST LOUIS INTL  LGT RAIN  59  56  89 E10       29.88R FOG

$$
MOZ072>076-082>087-097>100-106>115-301000-
...SOUTH CENTRAL AND SOUTHEAST MISSOURI...

CITY           SKY/WX    TMP DP  RH WIND       PRES   REMARKS
CAPE GIRARDEAU RAIN      60  58  92 NE10      29.84F FOG
POPLAR BLUFF   HVY RAIN  60  59  96 E5        29.84S FOG
WEST PLAINS    RAIN      59  57  93 E7        29.79F FOG

$$


USA.gov is the U.S. government's official web portal to all federal, state and local government web resources and services.